Milton, FL

1:05 PM CDT on March 29, 2017 (GMT -0500)
Whiting Field Naval Air Station (South)

Weather History for KNDZ - October, 2013

Change the Weather History Date:

Tuesday, October 8, 2013

  Actual Average (KNSE) Record (KNSE)
Temperature  
Mean Temperature 68 °F -  
Max Temperature 82 °F 78 °F 91 °F (2010)
Min Temperature 53 °F 60 °F 50 °F (2010)
Cooling Degree Days 2    
Growing Degree Days 18 (Base 50)    
Moisture  
Dew Point 58 °F    
Average Humidity 70    
Maximum Humidity 89    
Minimum Humidity 47    
Precipitation  
Precipitation 0.00 in - - ()
Sea Level Pressure  
Sea Level Pressure 29.94 in    
Wind  
Wind Speed 6 mph (North)    
Max Wind Speed 8 mph    
Max Gust Speed -    
Visibility 10 miles    
Events      
Averages and records for this station are not official NWS values.
T = Trace of Precipitation, MM = Missing Value Source: NWS Daily Summary

Daily Weather History Graph

Daily Weather History Graph

Search for Another Location

Airport or City:

Trip Planner

Search our weather history database for the weather conditions in past years. The results will help you decide how hot, cold, wet, or windy it might be!

Date:

Astronomy

Oct. 08, 2013 Rise Set
Actual Time 6:46 AM CDT 6:24 PM CDT
Civil Twilight 6:21 AM CDT 6:48 PM CDT
Nautical Twilight 5:53 AM CDT 7:16 PM CDT
Astronomical Twilight 5:26 AM CDT 7:44 PM CDT
Moon 10:25 AM CDT (10/8) 9:15 PM CDT (10/8)
Length of Visible Light 12h 26m
Length of Day
11h 38m
Waxing Crescent, 16% of the Moon is Illuminated
Oct 8
Waxing Crescent
Oct 11
First Quarter
Oct 18
Full
Oct 26
Last Quarter
Nov 3
New

Hourly Weather History & Observations

Time (CDT) Temp. Heat Index Dew Point Humidity Pressure Visibility Wind Dir Wind Speed Gust Speed Precip Events Conditions
12:56 AM 59.0 °F - 52.0 °F 78% 29.92 in 10.0 mi NNW 8.1 mph - N/A   Clear
1:56 AM 57.0 °F - 52.0 °F 83% 29.92 in 10.0 mi North 6.9 mph - N/A   Clear
2:56 AM 57.0 °F - 51.1 °F 81% 29.91 in 10.0 mi NNW 6.9 mph - N/A   Clear
3:56 AM 55.9 °F - 51.1 °F 84% 29.91 in 10.0 mi NNW 8.1 mph - N/A   Clear
4:56 AM 55.0 °F - 51.1 °F 86% 29.91 in 10.0 mi North 5.8 mph - N/A   Clear
5:56 AM 54.0 °F - 50.0 °F 86% 29.93 in 10.0 mi NNW 5.8 mph - N/A   Clear
6:56 AM 53.1 °F - 50.0 °F 89% 29.93 in 10.0 mi NW 5.8 mph - N/A   Partly Cloudy
7:56 AM 57.9 °F - 52.0 °F 81% 29.94 in 10.0 mi North 6.9 mph - N/A   Partly Cloudy
8:56 AM 63.0 °F - 53.1 °F 70% 29.96 in 10.0 mi North 5.8 mph - N/A   Partly Cloudy
9:56 AM 68.0 °F - 54.0 °F 61% 29.96 in 10.0 mi NNW 5.8 mph - N/A   Partly Cloudy
10:56 AM 72.0 °F - 55.9 °F 57% 29.96 in 10.0 mi NNW 6.9 mph - N/A   Partly Cloudy
11:56 AM 75.9 °F - 55.9 °F 50% 29.96 in 10.0 mi Calm Calm - N/A   Partly Cloudy
12:56 PM 79.0 °F - 57.0 °F 47% 29.94 in 10.0 mi NNW 5.8 mph - N/A   Scattered Clouds
1:56 PM 79.0 °F - 57.9 °F 48% 29.93 in 10.0 mi Calm Calm - N/A   Scattered Clouds
2:56 PM 82.0 °F 82.4 °F 60.1 °F 47% 29.92 in 10.0 mi Variable 3.5 mph - N/A   Scattered Clouds
3:56 PM 82.0 °F 82.7 °F 61.0 °F 49% 29.92 in 10.0 mi Calm Calm - N/A   Scattered Clouds
4:56 PM 82.0 °F 83.0 °F 62.1 °F 51% 29.92 in 10.0 mi NNE 3.5 mph - N/A   Scattered Clouds
5:56 PM 79.0 °F - 63.0 °F 58% 29.93 in 10.0 mi North 5.8 mph - N/A   Scattered Clouds
6:56 PM 75.0 °F - 64.0 °F 69% 29.94 in 10.0 mi North 5.8 mph - N/A   Scattered Clouds
7:56 PM 73.0 °F - 64.9 °F 76% 29.95 in 10.0 mi NNE 4.6 mph - N/A   Scattered Clouds
8:00 PM - - - N/A% - - North - - N/A   Unknown
8:56 PM 72.0 °F - 64.9 °F 78% 29.96 in 10.0 mi North 4.6 mph - N/A   Scattered Clouds
9:56 PM 70.0 °F - 64.9 °F 84% 29.97 in 10.0 mi North 4.6 mph - N/A   Mostly Cloudy
10:56 PM 73.0 °F - 66.9 °F 81% 29.97 in 10.0 mi NNE 8.1 mph - N/A   Overcast
11:56 PM 70.0 °F - 66.0 °F 87% 29.97 in 10.0 mi ENE 6.9 mph - N/A   Scattered Clouds